Home   Weather   Sweden   Uppsala   Past weeks
Flag for Sweden

Past Weather in Uppsala, Sweden — Yesterday and Last 2 Weeks

Currently: 30 °F. Clear. (Weather station: Stockholm / Arlanda, Sweden). See more current weather

Past Weather in Uppsala — Graph

°F

Uppsala Temperature Yesterday

Maximum temperature yesterday: 39 °F (at 12:20 pm)
Minimum temperature yesterday: 30 °F (at 9:50 pm)
Average temperature yesterday: 36 °F

High & Low Weather Summary for the Past Weeks

 TemperatureHumidityPressure
High43 °F (Feb 23, 11:50 am)100% (Feb 13, 1:50 am)30.39 "Hg (Feb 13, 1:50 am)
Low12 °F (Feb 9, 11:20 pm)60% (Feb 18, 1:20 pm)28.97 "Hg (Feb 23, 7:50 am)
Average31 °F92%29.77 "Hg
* Reported Feb 9 11:20 pm — Feb 24 11:50 pm, Uppsala. Weather by CustomWeather, © 2024

Note: Actual official high and low records may vary slightly from our data, if they occured in-between our weather recording intervals... More about our weather records

Uppsala Weather History for the Previous 24 Hours

Scroll right to see more
 ConditionsComfort  
Time TempWeatherWind HumidityBarometerVisibility
11:50 pm
Sat, Feb 24
30 °FClear.6 mph100%29.62 "Hg10 mi
11:20 pm30 °FClear.7 mph100%29.59 "Hg10 mi
10:50 pm32 °FClear.7 mph93%29.59 "Hg10 mi
10:20 pm30 °FPassing clouds.6 mph100%29.59 "HgN/A
9:50 pm30 °FPassing clouds.6 mph100%29.56 "HgN/A
9:20 pm32 °FClear.6 mph100%29.56 "Hg10 mi
8:20 pm32 °FClear.6 mph100%29.53 "Hg10 mi
7:50 pm34 °FPassing clouds.5 mph93%29.53 "HgN/A
7:20 pm34 °FPassing clouds.5 mph93%29.53 "HgN/A
6:50 pm34 °FClear.5 mph93%29.53 "Hg10 mi
6:20 pm36 °FPassing clouds.6 mph93%29.53 "HgN/A
5:50 pm36 °FPassing clouds.5 mph87%29.53 "HgN/A
5:20 pm36 °FPassing clouds.3 mph87%29.50 "HgN/A
4:50 pm37 °FBroken clouds.2 mph87%29.50 "HgN/A
4:20 pm37 °FScattered clouds.3 mph87%29.50 "HgN/A
3:50 pm39 °FSunny.5 mph81%29.50 "Hg10 mi
3:20 pm39 °FPartly sunny.5 mph75%29.50 "HgN/A
2:50 pm39 °FPartly sunny.6 mph75%29.50 "HgN/A
2:20 pm39 °FPassing clouds.6 mph75%29.50 "HgN/A
1:50 pm39 °FSunny.6 mph75%29.53 "Hg10 mi
1:20 pm39 °FSunny.6 mph75%29.53 "Hg10 mi
12:50 pm39 °FSunny.5 mph75%29.53 "Hg10 mi
12:20 pm39 °FSunny.6 mph75%29.56 "Hg10 mi
11:50 am37 °FSunny.7 mph81%29.56 "Hg10 mi
11:20 am37 °FSunny.8 mph81%29.56 "Hg10 mi
10:50 am37 °FSunny.9 mph81%29.56 "Hg10 mi
10:20 am37 °FSunny.10 mph81%29.56 "Hg10 mi
9:50 am36 °FSunny.10 mph87%29.56 "Hg10 mi
9:20 am36 °FSunny.10 mph87%29.56 "Hg10 mi
8:50 am36 °FSunny.12 mph87%29.56 "Hg10 mi
8:20 am36 °FSunny.12 mph87%29.56 "Hg10 mi
7:50 am36 °FSunny.12 mph81%29.56 "Hg10 mi
7:20 am36 °FSunny.13 mph81%29.53 "Hg10 mi
6:50 am36 °FClear.15 mph81%29.53 "Hg10 mi
6:20 am34 °FClear.17 mph87%29.53 "Hg10 mi
5:50 am36 °FClear.15 mph81%29.53 "Hg10 mi
5:20 am36 °FClear.16 mph81%29.53 "Hg10 mi
4:50 am36 °FClear.15 mph81%29.53 "Hg10 mi
4:20 am36 °FClear.13 mph81%29.53 "Hg10 mi
3:20 am36 °FClear.10 mph81%29.50 "Hg10 mi
2:50 am36 °FClear.12 mph81%29.50 "Hg10 mi
2:20 am34 °FClear.12 mph87%29.47 "Hg10 mi
1:50 am36 °FClear.13 mph81%29.47 "Hg10 mi
Weather by CustomWeather, © 2024

See weather overview